ハートレー第2彗星

103P/Hartley 2 (2010)

English version
Home page
Updated on June 30, 2013

---------------------------------------------------------------------

・ プロフィール

・ 写真集

・ 軌道要素

Epoch 2010 Oct. 11.0 TT = JDT 2455480.5
T 2010 Oct. 28.25947 TT                                 MPC
q   1.0586787            (2000.0)            P               Q
n   0.15231548     Peri.  181.20113     +0.75553305     -0.63756802
a   3.4724822      Node   219.75985     +0.60299837     +0.76665465
e   0.6951234      Incl.   13.61827     +0.25605230     +0.07581341
P   6.47
From 6302 observations 1997 May 2-2013 May 14, mean residual 0".7.
     Nongravitational parameters A1 = +0.19, A2 = +0.0273.

・ 星図

・ 光度変化

        H = 16.8  G = 0.15                        [    ,-360]  (              〜2009年11月 2日)
        m1 =  8.7 + 5 logΔ + 20.0 log r(t - 20)  [-360, 120]  (2009年11月 2日〜2011年 2月25日)
        m1 = 10.5 + 5 logΔ + 10.0 log r          [ 120,    ]  (2011年 2月25日〜              )

---------------------------------------------------------------------

軌道要素はM.P.E.C. 2013-M31に掲載されたものです。
星図は StellaNavigator Ver.2.0 for Windows (アストロアーツ編著 / アスキー出版局刊) で作成したものです。
光度グラフはComet for Windowsで作成したものです。

---------------------------------------------------------------------

Copyright(C) Seiichi Yoshida (comet@aerith.net). All rights reserved.